STARLINK-1990 (47586 NORAD) Tracking and Keplerian Element Data

This shows tracking and keplerian element data for the satellite.

Feedback or suggestion? Click here.




ElementValue
Catalog47586
NameSTARLINK-1990
Epoch Orbit176
Epoch Day59.91667824
Epoch Year2021
RAAN3.0265
Inclination53.0503
Eccentricity0.0001053
Argument of Perigee72.8752
Mean Anonmoly242.6879
Mean Motion15.59918391
Decay Rate-0.00910709
L11 47586U 21009AQ 21059.91667824 -.00910709 00000-0 -12202-1 0 9998
L22 47586 53.0503 3.0265 0001053 72.8752 242.6879 15.59918391 1767

Live tracking and technical data element details for STARLINK-1990 (NORAD 47586). STARLINK-1990 can be tracked NOW for your location showing map with azimuth and elevation plus other details from your city location.

Track the satellite on the map from your city or location and see movement details for azimuth, elevation, latitude, longitude, range, height, and movement on the map or in text.







IsCatalogInMostPopularTable: catalog: 47586, numindb: 6
Update: records affected: 1



GetName: 47586 STARLINK-1990

Hit Count: updated at: Mon, 01 Mar 2021 16:54:04 GMT